LiveATC.Net - Listen to live air traffic control over the Internet!


ICAO: EHVL  IATA:   Airport: Vlieland Heliport
City: Vlieland
Country: Netherlands   Continent: Europe
EHVL METAR Weather: EHVL 121325Z AUTO 24015KT 9999 FEW008 SCT009 13/10 Q1011 GRN
EHVL Flight Activity (FlightAware)

EHVL CTAF/Range Control
Feed Status: UP   Listeners: 1
Listen in your browser - HTML5 player (in browser, HTML5)
Click here to listen with your own player (launches your MP3 player)
Archive Access: EHVL CTAF/Range Control
FacilityFrequency
Cornfield VHF (CTAF)122.100
Range Controller (Primary)291.650
Range Controller (Secondary)370.300
Range Controller VHF138.075

NOTICE

Unauthorized use prohibited. See LiveATC.net Terms of Service


Airport/ARTCC Code
Frequency Search
(e.g., 124.400, 128.75)
Site-wide search
 


Browse Feeds
Top 50 Feeds
HF Oceanic Feeds
Coverage Map
Bad Weather Areas

LiveATC FAQ
Offer LiveATC feed
Contact LiveATC.net
Press Inquiries

LiveATC on iPhone
LiveATC on Android

Windows Phone
Windows 8/10

LiveATC Mobile
(Mobile browser)

ATC Audio Archives
Interesting Recordings

LiveATC Forums


Home Page
About LiveATC.net
Make a Donation
Terms of Use
Privacy Policy

Canadian Air Freqs

AIRMETs/SIGMETs

FAA Airport Status
NAS Status
Arrival Demand


Server Software By:
Icecast.org
Liquidsoap